#Datum;Uhrzeit;WR;Pac;DaySum;Status;WR;Pac;DaySum;Status;Pdc1;Udc;Temp;WR;Pac;DaySum;Status;Pdc1;Udc;Temp;WR;Pac;DaySum;Status;Pdc1;Udc;Temp;WR;Pac;DaySum;Status;Pdc1;Pdc2;Udc1;Udc2;Temp;WR;Pac;DaySum;Status;Pdc1;Pdc2;Udc1;Udc2;Temp;WR;Pac;DaySum;Status;Pdc1;Udc;Temp;WR;Pac;DaySum;Status;Pdc1;Udc;Temp;WR;Pac;DaySum;Status;Pdc1;Udc;Temp
19.10.21;23:55:00;1;521;12826;0;2;0;7803;0;0;0;0;3;0;5051;0;0;0;0;4;0;7163;0;0;0;0;5;0;18143;0;0;0;0;0;0;6;0;13578;0;0;0;0;0;0;7;0;9651;0;0;0;0;8;0;9645;0;0;0;0;9;0;5214;0;0;0;0
19.10.21;23:50:00;1;521;12782;0;2;0;7803;0;0;0;0;3;0;5051;0;0;0;0;4;0;7163;0;0;0;0;5;0;18143;0;0;0;0;0;0;6;0;13578;0;0;0;0;0;0;7;0;9651;0;0;0;0;8;0;9645;0;0;0;0;9;0;5214;0;0;0;0
19.10.21;23:45:00;1;524;12739;0;2;0;7803;0;0;0;0;3;0;5051;0;0;0;0;4;0;7163;0;0;0;0;5;0;18143;0;0;0;0;0;0;6;0;13578;0;0;0;0;0;0;7;0;9651;0;0;0;0;8;0;9645;0;0;0;0;9;0;5214;0;0;0;0
19.10.21;23:40:00;1;555;12694;0;2;0;7803;0;0;0;0;3;0;5051;0;0;0;0;4;0;7163;0;0;0;0;5;0;18143;0;0;0;0;0;0;6;0;13578;0;0;0;0;0;0;7;0;9651;0;0;0;0;8;0;9645;0;0;0;0;9;0;5214;0;0;0;0
19.10.21;23:35:00;1;516;12648;0;2;0;7803;0;0;0;0;3;0;5051;0;0;0;0;4;0;7163;0;0;0;0;5;0;18143;0;0;0;0;0;0;6;0;13578;0;0;0;0;0;0;7;0;9651;0;0;0;0;8;0;9645;0;0;0;0;9;0;5214;0;0;0;0
19.10.21;23:30:00;1;516;12605;0;2;0;7803;0;0;0;0;3;0;5051;0;0;0;0;4;0;7163;0;0;0;0;5;0;18143;0;0;0;0;0;0;6;0;13578;0;0;0;0;0;0;7;0;9651;0;0;0;0;8;0;9645;0;0;0;0;9;0;5214;0;0;0;0
19.10.21;23:25:00;1;588;12561;0;2;0;7803;0;0;0;0;3;0;5051;0;0;0;0;4;0;7163;0;0;0;0;5;0;18143;0;0;0;0;0;0;6;0;13578;0;0;0;0;0;0;7;0;9651;0;0;0;0;8;0;9645;0;0;0;0;9;0;5214;0;0;0;0
19.10.21;23:20:00;1;621;12511;0;2;0;7803;0;0;0;0;3;0;5051;0;0;0;0;4;0;7163;0;0;0;0;5;0;18143;0;0;0;0;0;0;6;0;13578;0;0;0;0;0;0;7;0;9651;0;0;0;0;8;0;9645;0;0;0;0;9;0;5214;0;0;0;0
19.10.21;23:15:00;1;567;12460;0;2;0;7803;0;0;0;0;3;0;5051;0;0;0;0;4;0;7163;0;0;0;0;5;0;18143;0;0;0;0;0;0;6;0;13578;0;0;0;0;0;0;7;0;9651;0;0;0;0;8;0;9645;0;0;0;0;9;0;5214;0;0;0;0
19.10.21;23:10:00;1;596;12413;0;2;0;7803;0;0;0;0;3;0;5051;0;0;0;0;4;0;7163;0;0;0;0;5;0;18143;0;0;0;0;0;0;6;0;13578;0;0;0;0;0;0;7;0;9651;0;0;0;0;8;0;9645;0;0;0;0;9;0;5214;0;0;0;0
19.10.21;23:05:00;1;537;12363;0;2;0;7803;0;0;0;0;3;0;5051;0;0;0;0;4;0;7163;0;0;0;0;5;0;18143;0;0;0;0;0;0;6;0;13578;0;0;0;0;0;0;7;0;9651;0;0;0;0;8;0;9645;0;0;0;0;9;0;5214;0;0;0;0
19.10.21;23:00:00;1;560;12319;0;2;0;7803;0;0;0;0;3;0;5051;0;0;0;0;4;0;7163;0;0;0;0;5;0;18143;0;0;0;0;0;0;6;0;13578;0;0;0;0;0;0;7;0;9651;0;0;0;0;8;0;9645;0;0;0;0;9;0;5214;0;0;0;0
19.10.21;22:55:00;1;542;12272;0;2;0;7803;0;0;0;0;3;0;5051;0;0;0;0;4;0;7163;0;0;0;0;5;0;18143;2;0;0;0;0;0;6;0;13578;2;0;0;0;0;0;7;0;9651;0;0;0;0;8;0;9645;0;0;0;0;9;0;5214;0;0;0;0
19.10.21;22:50:00;1;510;12228;0;2;0;7803;0;0;0;0;3;0;5051;0;0;0;0;4;0;7163;0;0;0;0;5;0;18143;2;0;0;0;0;0;6;0;13578;2;0;0;0;0;0;7;0;9651;0;0;0;0;8;0;9645;0;0;0;0;9;0;5214;0;0;0;0
19.10.21;22:45:00;1;511;12185;0;2;0;7803;0;0;0;0;3;0;5051;0;0;0;0;4;0;7163;0;0;0;0;5;0;18143;2;0;0;0;0;0;6;0;13578;2;0;0;0;0;0;7;0;9651;0;0;0;0;8;0;9645;0;0;0;0;9;0;5214;0;0;0;0
19.10.21;22:40:00;1;485;12143;0;2;0;7803;0;0;0;0;3;0;5051;0;0;0;0;4;0;7163;0;0;0;0;5;0;18143;2;0;0;0;0;0;6;0;13578;2;0;0;0;0;0;7;0;9651;0;0;0;0;8;0;9645;0;0;0;0;9;0;5214;0;0;0;0
19.10.21;22:35:00;1;480;12103;0;2;0;7803;0;0;0;0;3;0;5051;0;0;0;0;4;0;7163;0;0;0;0;5;0;18143;2;0;0;0;0;0;6;0;13578;2;0;0;0;0;0;7;0;9651;0;0;0;0;8;0;9645;0;0;0;0;9;0;5214;0;0;0;0
19.10.21;22:30:00;1;508;12063;0;2;0;7803;0;0;0;0;3;0;5051;0;0;0;0;4;0;7163;0;0;0;0;5;0;18143;2;0;0;0;0;0;6;0;13578;2;0;0;0;0;0;7;0;9651;0;0;0;0;8;0;9645;0;0;0;0;9;0;5214;0;0;0;0
19.10.21;22:25:00;1;523;12021;0;2;0;7803;0;0;0;0;3;0;5051;0;0;0;0;4;0;7163;0;0;0;0;5;0;18143;2;0;0;0;0;0;6;0;13578;2;0;0;0;0;0;7;0;9651;0;0;0;0;8;0;9645;0;0;0;0;9;0;5214;0;0;0;0
19.10.21;22:20:00;1;552;11977;0;2;0;7803;0;0;0;0;3;0;5051;0;0;0;0;4;0;7163;0;0;0;0;5;0;18143;2;0;0;0;0;0;6;0;13578;2;0;0;0;0;0;7;0;9651;0;0;0;0;8;0;9645;0;0;0;0;9;0;5214;0;0;0;0
19.10.21;22:15:00;1;559;11931;0;2;0;7803;0;0;0;0;3;0;5051;0;0;0;0;4;0;7163;0;0;0;0;5;0;18143;2;0;0;0;0;0;6;0;13578;2;0;0;0;0;0;7;0;9651;0;0;0;0;8;0;9645;0;0;0;0;9;0;5214;0;0;0;0
19.10.21;22:10:00;1;603;11883;0;2;0;7803;0;0;0;0;3;0;5051;0;0;0;0;4;0;7163;0;0;0;0;5;0;18143;2;0;0;0;0;0;6;0;13578;2;0;0;0;0;0;7;0;9651;0;0;0;0;8;0;9645;0;0;0;0;9;0;5214;0;0;0;0
19.10.21;22:05:00;1;567;11833;0;2;0;7803;0;0;0;0;3;0;5051;0;0;0;0;4;0;7163;0;0;0;0;5;0;18143;2;0;0;0;0;0;6;0;13578;2;0;0;0;0;0;7;0;9651;0;0;0;0;8;0;9645;0;0;0;0;9;0;5214;0;0;0;0
19.10.21;22:00:00;1;529;11788;0;2;0;7803;0;0;0;0;3;0;5051;0;0;0;0;4;0;7163;0;0;0;0;5;0;18143;2;0;0;0;0;0;6;0;13578;2;0;0;0;0;0;7;0;9651;0;0;0;0;8;0;9645;0;0;0;0;9;0;5214;0;0;0;0
19.10.21;21:55:00;1;594;11743;0;2;0;7803;0;0;0;0;3;0;5051;0;0;0;0;4;0;7163;0;0;0;0;5;0;18143;2;0;0;0;0;0;6;0;13578;2;0;0;0;0;0;7;0;9651;0;0;0;0;8;0;9645;0;0;0;0;9;0;5214;0;0;0;0
19.10.21;21:50:00;1;607;11693;0;2;0;7803;0;0;0;0;3;0;5051;0;0;0;0;4;0;7163;0;0;0;0;5;0;18143;2;0;0;0;0;0;6;0;13578;2;0;0;0;0;0;7;0;9651;0;0;0;0;8;0;9645;0;0;0;0;9;0;5214;0;0;0;0
19.10.21;21:45:00;1;565;11643;0;2;0;7803;0;0;0;0;3;0;5051;0;0;0;0;4;0;7163;0;0;0;0;5;0;18143;2;0;0;0;0;0;6;0;13578;2;0;0;0;0;0;7;0;9651;0;0;0;0;8;0;9645;0;0;0;0;9;0;5214;0;0;0;0
19.10.21;21:40:00;1;555;11596;0;2;0;7803;0;0;0;0;3;0;5051;0;0;0;0;4;0;7163;0;0;0;0;5;0;18143;2;0;0;0;0;0;6;0;13578;2;0;0;0;0;0;7;0;9651;0;0;0;0;8;0;9645;0;0;0;0;9;0;5214;0;0;0;0
19.10.21;21:35:00;1;545;11550;0;2;0;7803;0;0;0;0;3;0;5051;0;0;0;0;4;0;7163;0;0;0;0;5;0;18143;2;0;0;0;0;0;6;0;13578;2;0;0;0;0;0;7;0;9651;0;0;0;0;8;0;9645;0;0;0;0;9;0;5214;0;0;0;0
19.10.21;21:30:00;1;588;11504;0;2;0;7803;0;0;0;0;3;0;5051;0;0;0;0;4;0;7163;0;0;0;0;5;0;18143;2;0;0;0;0;0;6;0;13578;2;0;0;0;0;0;7;0;9651;0;0;0;0;8;0;9645;0;0;0;0;9;0;5214;0;0;0;0
19.10.21;21:25:00;1;618;11455;0;2;0;7803;0;0;0;0;3;0;5051;0;0;0;0;4;0;7163;0;0;0;0;5;0;18143;2;0;0;0;0;0;6;0;13578;2;0;0;0;0;0;7;0;9651;0;0;0;0;8;0;9645;0;0;0;0;9;0;5214;0;0;0;0
19.10.21;21:20:00;1;1002;11403;0;2;0;7803;0;0;0;0;3;0;5051;0;0;0;0;4;0;7163;0;0;0;0;5;0;18143;2;0;0;0;0;0;6;0;13578;2;0;0;0;0;0;7;0;9651;0;0;0;0;8;0;9645;0;0;0;0;9;0;5214;0;0;0;0
19.10.21;21:15:00;1;1013;11296;0;2;0;7803;0;0;0;0;3;0;5051;0;0;0;0;4;0;7163;0;0;0;0;5;0;18143;2;0;0;0;0;0;6;0;13578;2;0;0;0;0;0;7;0;9651;0;0;0;0;8;0;9645;0;0;0;0;9;0;5214;0;0;0;0
19.10.21;21:10:00;1;702;11229;0;2;0;7803;0;0;0;0;3;0;5051;0;0;0;0;4;0;7163;0;0;0;0;5;0;18143;2;0;0;0;0;0;6;0;13578;2;0;0;0;0;0;7;0;9651;0;0;0;0;8;0;9645;0;0;0;0;9;0;5214;0;0;0;0
19.10.21;21:05:00;1;753;11171;0;2;0;7803;0;0;0;0;3;0;5051;0;0;0;0;4;0;7163;0;0;0;0;5;0;18143;2;0;0;0;0;0;6;0;13578;2;0;0;0;0;0;7;0;9651;0;0;0;0;8;0;9645;0;0;0;0;9;0;5214;0;0;0;0
19.10.21;21:00:00;1;793;11106;0;2;0;7803;0;0;0;0;3;0;5051;0;0;0;0;4;0;7163;0;0;0;0;5;0;18143;2;0;0;0;0;0;6;0;13578;2;0;0;0;0;0;7;0;9651;0;0;0;0;8;0;9645;0;0;0;0;9;0;5214;0;0;0;0
19.10.21;20:55:00;1;847;11034;0;2;0;7803;0;0;0;0;3;0;5051;0;0;0;0;4;0;7163;0;0;0;0;5;0;18143;2;0;0;0;0;0;6;0;13578;2;0;0;0;0;0;7;0;9651;0;0;0;0;8;0;9645;0;0;0;0;9;0;5214;0;0;0;0
19.10.21;20:50:00;1;827;10964;0;2;0;7803;0;0;0;0;3;0;5051;0;0;0;0;4;0;7163;0;0;0;0;5;0;18143;2;0;0;0;0;0;6;0;13578;2;0;0;0;0;0;7;0;9651;0;0;0;0;8;0;9645;0;0;0;0;9;0;5214;0;0;0;0
19.10.21;20:45:00;1;831;10896;0;2;0;7803;0;0;0;0;3;0;5051;0;0;0;0;4;0;7163;0;0;0;0;5;0;18143;2;0;0;0;0;0;6;0;13578;2;0;0;0;0;0;7;0;9651;0;0;0;0;8;0;9645;0;0;0;0;9;0;5214;0;0;0;0
19.10.21;20:40:00;1;837;10826;0;2;0;7803;0;0;0;0;3;0;5051;0;0;0;0;4;0;7163;0;0;0;0;5;0;18143;2;0;0;0;0;0;6;0;13578;2;0;0;0;0;0;7;0;9651;0;0;0;0;8;0;9645;0;0;0;0;9;0;5214;0;0;0;0
19.10.21;20:35:00;1;1345;10756;0;2;0;7803;0;0;0;0;3;0;5051;0;0;0;0;4;0;7163;0;0;0;0;5;0;18143;2;0;0;0;0;0;6;0;13578;2;0;0;0;0;0;7;0;9651;0;0;0;0;8;0;9645;0;0;0;0;9;0;5214;0;0;0;0
19.10.21;20:30:00;1;1456;10637;0;2;0;7803;0;0;0;0;3;0;5051;0;0;0;0;4;0;7163;0;0;0;0;5;0;18143;2;0;0;0;0;0;6;0;13578;2;0;0;0;0;0;7;0;9651;0;0;0;0;8;0;9645;0;0;0;0;9;0;5214;0;0;0;0
19.10.21;20:25:00;1;920;10514;0;2;0;7803;0;0;0;0;3;0;5051;0;0;0;0;4;0;7163;0;0;0;0;5;0;18143;2;0;0;0;0;0;6;0;13578;2;0;0;0;0;0;7;0;9651;0;0;0;0;8;0;9645;0;0;0;0;9;0;5214;0;0;0;0
19.10.21;20:20:00;1;762;10446;0;2;0;7803;0;0;0;0;3;0;5051;0;0;0;0;4;0;7163;0;0;0;0;5;0;18143;2;0;0;0;0;0;6;0;13578;2;0;0;0;0;0;7;0;9651;0;0;0;0;8;0;9645;0;0;0;0;9;0;5214;0;0;0;0
19.10.21;20:15:00;1;812;10382;0;2;0;7803;0;0;0;0;3;0;5051;0;0;0;0;4;0;7163;0;0;0;0;5;0;18143;2;0;0;0;0;0;6;0;13578;2;0;0;0;0;0;7;0;9651;0;0;0;0;8;0;9645;0;0;0;0;9;0;5214;0;0;0;0
19.10.21;20:10:00;1;837;10312;0;2;0;7803;0;0;0;0;3;0;5051;0;0;0;0;4;0;7163;0;0;0;0;5;0;18143;2;0;0;0;0;0;6;0;13578;2;0;0;0;0;0;7;0;9651;0;0;0;0;8;0;9645;0;0;0;0;9;0;5214;0;0;0;0
19.10.21;20:05:00;1;867;10242;0;2;0;7803;0;0;0;0;3;0;5051;0;0;0;0;4;0;7163;0;0;0;0;5;0;18143;2;0;0;0;0;0;6;0;13578;2;0;0;0;0;0;7;0;9651;0;0;0;0;8;0;9645;0;0;0;0;9;0;5214;0;0;0;0
19.10.21;20:00:00;1;1722;10168;0;2;0;7803;0;0;0;0;3;0;5051;0;0;0;0;4;0;7163;0;0;0;0;5;0;18143;2;0;0;0;0;0;6;0;13578;2;0;0;0;0;0;7;0;9651;0;0;0;0;8;0;9645;0;0;0;0;9;0;5214;0;0;0;0
19.10.21;19:55:00;1;2196;10002;0;2;0;7803;0;0;0;0;3;0;5051;0;0;0;0;4;0;7163;0;0;0;0;5;0;18143;2;0;0;0;0;0;6;0;13578;2;0;0;0;0;0;7;0;9651;0;0;0;0;8;0;9645;0;0;0;0;9;0;5214;0;0;0;0
19.10.21;19:50:00;1;1055;9811;0;2;0;7803;0;0;0;0;3;0;5051;0;0;0;0;4;0;7163;0;0;0;0;5;0;18143;2;0;0;0;0;0;6;0;13578;2;0;0;0;0;0;7;0;9651;0;0;0;0;8;0;9645;0;0;0;0;9;0;5214;0;0;0;0
19.10.21;19:45:00;1;864;9726;0;2;0;7803;0;0;0;0;3;0;5051;0;0;0;0;4;0;7163;0;0;0;0;5;0;18143;2;0;0;0;0;0;6;0;13578;2;0;0;0;0;0;7;0;9651;0;0;0;0;8;0;9645;0;0;0;0;9;0;5214;0;0;0;0
19.10.21;19:40:00;1;854;9655;0;2;0;7803;0;0;0;0;3;0;5051;0;0;0;0;4;0;7163;0;0;0;0;5;0;18143;2;0;0;0;0;0;6;0;13578;2;0;0;0;0;0;7;0;9651;0;0;0;0;8;0;9645;0;0;0;0;9;0;5214;0;0;0;0
19.10.21;19:35:00;1;898;9582;0;2;0;7803;0;0;0;0;3;0;5051;0;0;0;0;4;0;7163;0;0;0;0;5;0;18143;2;0;0;0;0;0;6;0;13578;2;0;0;0;0;0;7;0;9651;0;0;0;0;8;0;9645;0;0;0;0;9;0;5214;0;0;0;0
19.10.21;19:30:00;1;848;9500;0;2;0;7803;0;0;0;0;3;0;5051;0;0;0;0;4;0;7163;0;0;0;0;5;0;18143;2;0;0;0;0;0;6;0;13578;2;0;0;0;0;0;7;0;9651;0;0;0;0;8;0;9645;0;0;0;0;9;0;5214;0;0;0;0
19.10.21;19:25:00;1;875;9422;0;2;0;7803;0;0;0;0;3;0;5051;0;0;0;0;4;0;7163;0;0;0;0;5;0;18143;2;0;0;0;0;0;6;0;13578;2;0;0;0;0;0;7;0;9651;0;0;0;0;8;0;9645;0;0;0;0;9;0;5214;0;0;0;0
19.10.21;19:20:00;1;915;9334;0;2;0;7803;0;0;0;0;3;0;5051;0;0;0;0;4;0;7163;0;0;0;0;5;0;18143;2;0;0;0;0;0;6;0;13578;2;0;0;0;0;0;7;0;9651;0;0;0;0;8;0;9645;0;0;0;0;9;0;5214;0;0;0;0
19.10.21;19:15:00;1;1324;9258;0;2;0;7803;0;0;0;0;3;0;5051;0;0;0;0;4;0;7163;0;0;0;0;5;0;18143;2;0;0;0;0;0;6;0;13578;2;0;0;0;0;0;7;0;9651;0;0;0;0;8;0;9645;0;0;0;0;9;0;5214;0;0;0;0
19.10.21;19:10:00;1;1189;9143;0;2;0;7803;0;0;0;0;3;0;5051;0;0;0;0;4;0;7163;0;0;0;0;5;0;18143;2;0;0;0;0;0;6;0;13578;2;0;0;0;0;0;7;0;9651;0;0;0;0;8;0;9645;0;0;0;0;9;0;5214;0;0;0;0
19.10.21;19:05:00;1;874;9060;0;2;0;7803;0;0;0;0;3;0;5051;0;0;0;0;4;0;7163;0;0;0;0;5;0;18143;2;0;0;0;0;0;6;0;13578;2;0;0;0;0;0;7;0;9651;0;0;0;0;8;0;9645;0;0;0;0;9;0;5214;0;0;0;0
19.10.21;19:00:00;1;753;8979;0;2;0;7803;0;0;0;0;3;0;5051;0;0;0;0;4;0;7163;0;0;0;0;5;0;18143;2;0;0;0;0;0;6;0;13578;2;0;0;0;0;0;7;0;9651;0;0;0;0;8;0;9645;0;0;0;0;9;0;5214;0;0;0;0
19.10.21;18:55:00;1;754;8915;0;2;0;7803;0;0;0;0;3;0;5051;0;0;0;0;4;0;7163;0;0;0;0;5;0;18143;2;0;0;0;0;0;6;0;13578;2;0;0;0;0;0;7;0;9651;0;0;0;0;8;0;9645;0;0;0;0;9;0;5214;0;0;0;0
19.10.21;18:50:00;1;646;8845;0;2;0;7803;0;0;0;0;3;0;5051;0;0;0;0;4;0;7163;0;0;0;0;5;0;18143;2;0;0;0;0;0;6;0;13578;2;0;0;0;0;0;7;0;9651;0;0;0;0;8;0;9645;0;0;0;0;9;0;5214;0;0;0;0
19.10.21;18:45:00;1;455;8780;0;2;0;7803;0;0;0;0;3;0;5051;0;0;0;0;4;0;7163;0;0;0;0;5;0;18143;2;0;0;0;0;0;6;0;13578;2;0;0;0;0;0;7;0;9651;0;0;0;0;8;0;9645;0;0;0;0;9;0;5214;0;0;0;0
19.10.21;18:40:00;1;480;8742;0;2;0;7803;0;0;0;0;3;0;5051;0;0;0;0;4;0;7163;0;0;0;0;5;0;18143;2;0;0;0;0;0;6;0;13578;2;0;0;0;0;0;7;0;9651;0;0;0;0;8;0;9645;0;0;0;0;9;0;5214;0;0;0;0
19.10.21;18:35:00;1;450;8703;0;2;0;7803;0;0;0;0;3;0;5051;0;0;0;0;4;0;7163;0;0;0;0;5;0;18143;2;0;0;0;0;0;6;0;13578;2;0;0;0;0;0;7;0;9651;0;0;0;0;8;0;9645;0;0;0;0;9;0;5214;0;0;0;0
19.10.21;18:30:00;1;520;8662;0;2;0;7803;0;0;0;0;3;0;5051;0;0;0;0;4;0;7163;0;0;0;0;5;0;18143;2;0;0;0;0;0;6;0;13578;2;0;0;0;0;0;7;0;9651;0;0;0;0;8;0;9645;0;0;0;0;9;0;5214;0;0;0;0
19.10.21;18:25:00;1;438;8618;0;2;0;7803;0;0;0;0;3;0;5051;0;0;0;0;4;0;7163;0;0;0;0;5;0;18143;2;0;0;0;0;0;6;0;13578;2;0;0;0;0;0;7;0;9651;0;0;0;0;8;0;9645;0;0;0;0;9;0;5214;0;0;0;0
19.10.21;18:20:00;1;1162;8580;0;2;0;7803;0;0;0;0;3;0;5051;0;0;191;13;4;0;7163;0;0;0;0;5;0;18143;2;0;0;0;0;0;6;0;13578;2;0;0;0;0;0;7;0;9651;0;0;0;0;8;0;9645;0;0;0;0;9;0;5214;0;0;0;0
19.10.21;18:15:00;1;1029;8452;0;2;0;7803;6;0;267;16;3;0;5051;6;0;302;19;4;0;7163;0;0;58;14;5;0;18143;2;0;0;0;0;0;6;0;13578;2;0;0;0;0;0;7;0;9651;0;0;0;0;8;0;9645;0;0;0;0;9;0;5214;0;0;0;0
19.10.21;18:10:00;1;531;8366;0;2;0;7803;6;0;298;16;3;0;5051;6;0;352;19;4;0;7163;1;0;97;18;5;0;18143;2;0;0;112;111;9;6;0;13578;2;0;0;0;0;0;7;0;9651;0;0;0;0;8;0;9645;0;0;0;0;9;0;5214;0;0;41;2
19.10.21;18:05:00;1;513;8322;0;2;0;7803;6;0;332;16;3;0;5051;6;2;405;19;4;0;7163;1;0;141;19;5;0;18143;23;0;0;358;356;30;6;0;13578;2;0;0;417;409;28;7;0;9651;2;0;273;20;8;0;9645;6;0;279;20;9;0;5214;6;0;297;16
19.10.21;18:00:00;1;2180;8280;0;2;0;7803;6;0;351;16;3;0;5051;4;1;418;19;4;0;7163;1;0;171;19;5;0;18143;23;0;0;386;460;30;6;0;13578;23;0;0;507;503;28;7;0;9651;6;0;323;20;8;0;9645;6;0;329;20;9;0;5214;6;0;346;16
19.10.21;17:55:00;1;4271;8097;0;2;0;7803;6;0;364;17;3;0;5051;3;2;433;20;4;0;7163;1;0;192;19;5;8;18143;1;0;1;387;594;30;6;0;13578;23;0;0;531;526;28;7;0;9651;6;0;363;21;8;0;9645;6;0;369;20;9;0;5214;6;0;395;16
19.10.21;17:50:00;1;2517;7762;0;2;0;7803;6;0;375;17;3;1;5051;6;3;463;20;4;0;7163;1;0;211;20;5;14;18142;1;0;1;397;627;30;6;11;13578;1;0;0;541;531;28;7;0;9651;6;0;384;21;8;0;9645;6;0;400;20;9;0;5214;6;0;430;17
19.10.21;17:45:00;1;2524;7550;0;2;0;7803;6;0;383;17;3;1;5051;6;4;469;20;4;0;7163;1;0;221;20;5;40;18142;1;0;2;389;618;31;6;15;13577;1;0;1;549;534;29;7;0;9651;6;2;403;21;8;0;9645;6;2;417;20;9;0;5214;6;1;451;17
19.10.21;17:40:00;1;2468;7340;0;2;0;7803;6;0;394;17;3;0;5051;6;5;489;20;4;0;7163;3;0;222;20;5;90;18137;4;4;19;373;592;32;6;58;13577;1;0;10;527;511;30;7;2;9651;6;3;439;21;8;1;9645;6;4;441;21;9;3;5214;4;4;459;17
19.10.21;17:35:00;1;2522;7134;0;2;0;7803;6;0;399;17;3;1;5051;6;6;491;20;4;0;7163;3;0;199;21;5;103;18130;4;15;29;373;592;32;6;79;13572;4;2;16;515;500;30;7;1;9651;6;4;445;21;8;1;9645;6;5;447;21;9;3;5214;3;3;489;17
19.10.21;17:30:00;1;2538;6924;0;2;0;7803;6;0;401;18;3;0;5051;6;0;519;21;4;0;7163;3;0;199;21;5;113;18121;4;21;33;373;592;32;6;86;13565;4;2;20;515;500;30;7;1;9650;6;4;452;22;8;3;9645;6;9;436;21;9;2;5214;6;3;480;17
19.10.21;17:25:00;1;2899;6707;0;2;16;7803;6;28;386;18;3;1;5051;3;7;502;21;4;13;7163;3;13;199;21;5;142;18111;4;32;52;373;592;32;6;106;13558;4;14;33;515;500;30;7;0;9650;6;5;459;22;8;3;9644;6;8;458;21;9;1;5213;6;6;505;17
19.10.21;17:20:00;1;4028;6475;0;2;64;7802;4;94;354;19;3;6;5050;6;11;520;21;4;37;7161;3;39;198;21;5;196;18099;4;73;73;373;592;32;6;147;13549;4;40;56;515;501;30;7;44;9650;4;74;353;22;8;41;9644;4;76;394;22;9;4;5213;6;7;527;18
19.10.21;17:15:00;1;383;6192;0;2;82;7797;4;113;360;19;3;16;5050;6;27;469;21;4;38;7158;3;40;197;21;5;238;18082;4;89;93;372;592;32;6;176;13536;4;50;67;515;500;30;7;60;9647;4;93;375;22;8;64;9641;4;93;390;22;9;6;5213;6;10;529;18
19.10.21;17:10:00;1;356;6161;0;2;103;7790;4;137;357;19;3;57;5048;4;93;435;22;4;67;7155;3;69;198;21;5;285;18062;4;110;108;373;592;32;6;209;13521;4;67;83;515;500;30;7;83;9642;4;117;372;22;8;87;9635;4;117;387;22;9;14;5213;4;22;509;18
19.10.21;17:05:00;1;311;6132;0;2;115;7781;4;147;363;19;3;64;5044;4;101;454;22;4;72;7150;3;75;199;21;5;304;18038;4;120;114;373;592;32;6;222;13504;4;75;94;515;500;30;7;98;9635;4;134;401;22;8;101;9628;4;130;384;22;9;20;5211;3;30;507;18
19.10.21;17:00:00;1;308;6106;0;2;124;7772;4;158;371;19;3;74;5038;4;107;447;22;4;84;7144;3;87;199;21;5;325;18012;4;141;126;373;592;32;6;241;13485;4;86;102;515;500;30;7;115;9627;4;145;391;22;8;108;9620;4;146;392;22;9;19;5209;6;29;531;19
19.10.21;16:55:00;1;339;6080;0;2;138;7761;4;170;366;20;3;80;5032;4;117;459;22;4;93;7137;3;97;203;22;5;345;17985;4;142;139;373;592;32;6;254;13465;4;95;107;515;500;30;7;125;9617;4;158;410;23;8;122;9611;4;150;377;22;9;65;5208;4;93;449;19
19.10.21;16:50:00;1;407;6050;0;2;146;7750;4;182;361;20;3;83;5025;4;124;483;22;4;105;7129;5;109;215;22;5;361;17957;4;155;149;372;592;32;6;266;13444;4;98;114;515;500;30;7;141;9607;4;169;382;23;8;139;9600;4;176;407;22;9;74;5202;4;103;457;19
19.10.21;16:45:00;1;399;6016;0;2;179;7737;4;215;360;20;3;107;5018;4;145;487;22;4;145;7120;5;151;216;22;5;429;17926;4;190;171;375;612;32;6;313;13421;4;124;138;515;500;30;7;187;9595;4;218;430;23;8;179;9589;4;218;416;22;9;94;5196;4;125;483;19
19.10.21;16:40:00;1;376;5984;0;2;247;7722;4;282;370;20;3;151;5009;4;190;489;23;4;204;7108;5;212;219;22;5;548;17889;4;253;230;380;612;32;6;398;13394;4;166;181;515;509;30;7;249;9579;4;297;454;23;8;259;9574;4;299;438;22;9;136;5188;4;169;489;20
19.10.21;16:35:00;1;423;5953;0;2;300;7702;4;338;375;20;3;184;4997;4;226;494;23;4;247;7091;5;257;220;22;5;667;17843;4;310;277;397;633;32;6;482;13361;4;203;222;539;524;30;7;321;9559;4;357;460;23;8;318;9552;4;361;449;22;9;170;5177;4;204;503;20
19.10.21;16:30:00;1;411;5917;0;2;438;7677;4;483;386;21;3;274;4981;4;321;497;23;4;377;7070;5;393;233;22;5;916;17786;4;445;385;402;630;32;6;671;13319;4;290;311;547;533;30;7;481;9531;4;523;455;23;8;478;9526;4;519;451;23;9;255;5162;4;292;509;20
19.10.21;16:25:00;1;397;5883;0;2;533;7641;4;580;384;21;3;337;4959;4;387;503;23;4;460;7039;5;479;230;22;5;1060;17708;4;522;446;417;653;32;6;776;13263;4;334;360;548;536;30;7;586;9492;4;621;467;23;8;571;9486;4;626;470;23;9;305;5141;4;348;514;20
19.10.21;16:20:00;1;372;5850;0;2;537;7596;4;583;389;21;3;340;4931;4;390;500;23;4;465;7001;5;484;233;22;5;1053;17620;4;522;446;405;646;32;6;787;13197;4;339;361;563;545;30;7;568;9443;4;620;462;23;8;573;9439;4;623;470;23;9;306;5116;4;349;507;20
19.10.21;16:15:00;1;322;5819;0;2;505;7551;4;551;384;21;3;320;4902;4;366;489;23;4;438;6962;5;456;236;22;5;1009;17532;4;498;427;400;648;32;6;747;13132;4;323;344;556;548;30;7;544;9396;4;582;453;23;8;542;9391;4;592;465;23;9;292;5091;4;330;503;20
19.10.21;16:10:00;1;338;5791;0;2;478;7509;4;524;384;21;3;302;4876;4;348;497;23;4;418;6926;5;436;232;22;5;1006;17448;4;500;426;400;647;32;6;748;13070;4;319;346;556;551;30;7;525;9351;4;567;459;23;8;520;9346;4;569;451;23;9;276;5066;4;317;508;20
19.10.21;16:05:00;1;337;5763;0;2;497;7470;4;545;384;21;3;314;4851;4;364;501;23;4;437;6891;5;455;236;22;5;1076;17364;4;532;452;403;656;32;6;792;13008;4;342;362;558;551;30;7;528;9307;4;577;461;23;8;537;9303;4;578;451;23;9;287;5043;4;328;514;21
19.10.21;16:00:00;1;297;5735;0;2;502;7428;4;550;385;21;3;319;4824;4;364;488;23;4;439;6854;5;457;233;22;5;1072;17275;4;527;450;410;642;32;6;795;12942;4;343;369;558;542;30;7;546;9263;4;591;465;23;8;551;9258;4;591;467;23;9;291;5019;4;332;510;21
19.10.21;15:55:00;1;282;5710;0;2;476;7386;4;523;381;21;3;306;4798;4;352;494;23;4;423;6818;5;441;228;22;5;1054;17186;4;520;445;404;639;32;6;782;12875;4;341;361;558;537;30;7;521;9217;4;573;461;23;8;531;9212;4;574;461;23;9;284;4995;4;325;508;21
19.10.21;15:50:00;1;257;5687;0;2;555;7346;4;602;387;22;3;352;4772;4;400;498;24;4;491;6782;5;511;236;23;5;1226;17097;4;610;519;410;653;32;6;912;12809;4;404;420;577;533;30;7;624;9174;4;667;462;23;8;618;9168;4;668;465;23;9;327;4971;4;373;513;21
19.10.21;15:45:00;1;257;5665;0;2;615;7300;4;661;385;22;3;393;4743;4;441;497;24;4;545;6741;5;568;229;23;5;1331;16994;4;671;567;409;656;33;6;1000;12733;4;455;462;570;544;30;7;697;9122;4;746;461;23;8;691;9116;4;747;461;23;9;375;4944;4;421;508;21
19.10.21;15:40:00;1;304;5644;0;2;660;7249;4;711;390;22;3;422;4710;4;475;498;24;4;594;6696;5;619;233;23;5;1439;16882;4;726;615;413;656;33;6;1074;12649;4;498;490;573;542;30;7;745;9064;4;804;465;23;8;753;9059;4;801;462;23;9;403;4913;4;449;516;21
19.10.21;15:35:00;1;361;5617;0;2;755;7194;4;811;392;22;3;487;4675;4;540;500;24;4;683;6647;5;711;237;23;5;1626;16761;4;848;701;408;681;33;6;1217;12559;4;564;570;579;550;30;7;861;9002;4;916;472;23;8;857;8996;4;914;465;23;9;463;4879;4;510;515;21
19.10.21;15:30:00;1;332;5588;0;2;846;7131;4;904;389;22;3;544;4635;4;602;505;24;4;760;6590;5;791;236;23;5;1806;16624;4;930;776;415;670;32;6;1340;12456;4;630;631;586;549;30;7;955;8930;4;1022;473;23;8;961;8925;4;1021;465;23;9;521;4841;4;572;513;21
19.10.21;15:25:00;1;370;5561;0;2;887;7061;4;942;387;22;3;567;4589;4;626;507;24;4;785;6527;5;817;235;23;5;1822;16474;4;941;781;415;670;33;6;1362;12344;4;640;636;585;558;30;7;1006;8851;4;1062;469;23;8;1005;8845;4;1065;465;23;9;543;4797;4;593;513;21
19.10.21;15:20:00;1;397;5529;0;2;831;6987;4;887;394;22;3;537;4542;4;591;502;24;4;732;6461;5;762;233;23;5;1675;16323;4;859;721;410;663;32;6;1262;12231;4;589;594;576;551;30;7;940;8767;4;1003;468;23;8;944;8761;4;1005;465;23;9;515;4752;4;562;511;21
19.10.21;15:15:00;1;352;5496;0;2;783;6917;4;837;390;22;3;501;4497;4;556;508;24;4;685;6400;5;713;233;23;5;1601;16185;4;819;688;417;672;32;6;1200;12126;4;555;562;583;548;30;7;883;8688;4;939;467;23;8;885;8682;4;936;464;23;9;475;4709;4;524;511;21
19.10.21;15:10:00;1;305;5466;0;2;814;6852;4;868;385;22;3;525;4455;4;578;504;24;4;717;6343;5;747;235;23;5;1675;16050;4;861;717;416;674;33;6;1257;12025;4;590;587;581;551;30;7;920;8615;4;974;470;24;8;919;8608;4;975;469;23;9;492;4670;4;545;517;21
19.10.21;15:05:00;1;307;5440;0;2;744;6785;4;799;398;22;3;483;4411;4;535;498;24;4;656;6283;5;684;235;23;5;1532;15911;4;777;656;409;674;33;6;1155;11921;4;536;538;581;551;30;7;832;8538;4;887;464;24;8;832;8531;4;882;464;23;9;453;4628;4;501;511;21
19.10.21;15:00:00;1;304;5415;0;2;553;6723;4;599;385;22;3;356;4371;4;401;491;24;4;481;6228;5;501;232;23;5;1151;15787;4;572;488;402;639;33;6;863;11827;4;380;394;579;546;30;7;599;8469;4;644;462;24;8;602;8462;4;650;462;23;9;323;4591;4;365;505;21
19.10.21;14:55:00;1;260;5390;0;2;436;6676;4;482;384;22;3;276;4341;4;322;498;24;4;377;6188;5;393;231;23;5;932;15692;4;448;394;399;642;33;6;689;11756;4;298;315;546;538;30;7;476;8418;4;517;460;24;8;481;8411;4;522;453;23;9;253;4563;4;294;500;21
19.10.21;14:50:00;1;272;5368;0;2;389;6639;4;432;381;22;3;245;4318;4;287;488;24;4;333;6156;5;347;230;23;5;849;15616;4;411;362;396;626;33;6;625;11699;4;273;280;543;533;31;7;423;8379;4;472;451;24;8;430;8371;4;472;450;24;9;227;4542;4;263;493;21
19.10.21;14:45:00;1;290;5345;0;2;437;6607;4;480;381;22;3;271;4298;4;314;467;24;4;380;6128;5;396;229;23;5;984;15545;4;483;416;398;642;33;6;728;11647;4;317;331;564;532;31;7;478;8343;4;519;449;24;8;465;8335;4;516;446;24;9;249;4523;4;290;500;22
19.10.21;14:40:00;1;320;5321;0;2;543;6570;4;590;385;23;3;343;4275;4;391;497;24;4;482;6097;5;502;232;23;5;1222;15460;4;604;516;410;643;33;6;898;11585;4;397;415;579;534;31;7;591;8303;4;640;464;24;8;491;8296;4;534;384;20;9;313;4502;4;356;514;22
19.10.21;14:35:00;1;335;5294;0;2;580;6525;4;628;379;23;3;368;4247;4;419;501;25;4;510;6057;5;531;231;24;5;1293;15358;4;643;545;405;664;33;6;960;11509;4;430;440;581;547;31;7;656;8254;4;695;467;24;8;647;8249;4;695;449;24;9;348;4476;4;388;503;22
19.10.21;14:30:00;1;303;5266;0;2;640;6477;4;689;386;23;3;407;4216;4;457;492;25;4;565;6014;5;589;231;24;5;1384;15250;4;701;592;410;654;33;6;1031;11429;4;461;479;566;545;31;7;709;8199;4;753;461;24;8;704;8195;4;754;461;24;9;380;4447;4;423;504;22
19.10.21;14:25:00;1;304;5241;0;2;747;6423;4;803;385;24;3;480;4182;4;532;502;25;4;657;5967;5;684;235;24;5;1562;15133;4;802;677;411;661;33;6;1183;11342;4;547;552;574;552;31;7;748;8140;4;798;467;24;8;830;8136;4;880;467;24;9;446;4416;4;493;511;22
19.10.21;14:20:00;1;340;5215;0;2;805;6361;4;861;385;24;3;517;4142;4;572;505;25;4;707;5912;5;736;237;24;5;1641;15000;4;850;703;411;667;34;6;1230;11242;4;576;569;585;541;31;7;898;8081;4;960;460;25;8;904;8067;4;959;454;24;9;488;4378;4;538;511;23
19.10.21;14:15:00;1;310;5187;0;2;726;6294;4;780;387;24;3;466;4099;4;521;495;25;4;637;5853;5;663;230;24;5;1518;14863;4;773;650;406;655;34;6;1137;11140;4;523;529;577;538;31;7;809;8006;4;864;468;25;8;819;7992;4;867;461;24;9;440;4338;4;488;515;23